This is the latest recevied weather packets stored in our database for station/object KQ4UPF. If no packets are shown the sender has not sent any weather packets the latest 10 day(s).
| Time | Temp. | Humidity | Pressure | Rain* | Wind** | Luminosity | Snow |
|---|---|---|---|---|---|---|---|
| 1778030629 | 21.11° C | 68% | 1012 hPa | 0 mm | - | 0 W/m² | - |
| 1778030326 | 21.11° C | 65% | 1011.9 hPa | 0 mm | - | 0 W/m² | - |
| 1778030023 | 21.11° C | 67% | 1011.8 hPa | 0 mm | - | 0 W/m² | - |
| 1778029720 | 21.11° C | 68% | 1012 hPa | 0 mm | - | 0 W/m² | - |
| 1778029419 | 21.11° C | 68% | 1011.8 hPa | 0 mm | - | 0 W/m² | - |
| 1778029115 | 21.11° C | 66% | 1011.6 hPa | 0 mm | - | 0 W/m² | - |
| 1778028812 | 20.56° C | 68% | 1011.7 hPa | 0 mm | - | 0 W/m² | - |
| 1778028507 | 21.11° C | 67% | 1012 hPa | 0 mm | - | 0 W/m² | - |
| 1778028206 | 21.11° C | 66% | 1012.1 hPa | 0 mm | - | 0 W/m² | - |
| 1778027901 | 21.67° C | 66% | 1012 hPa | 0 mm | - | 1 W/m² | - |
| 1778027598 | 21.67° C | 65% | 1011.7 hPa | 0 mm | - | 2 W/m² | - |
| 1778027294 | 21.67° C | 63% | 1011.8 hPa | 0 mm | - | 2 W/m² | - |
| 1778026991 | 21.67° C | 65% | 1011.5 hPa | 0 mm | - | 3 W/m² | - |
| 1778026686 | 21.67° C | 64% | 1011.7 hPa | 0 mm | - | 7 W/m² | - |
| 1778026384 | 21.67° C | 62% | 1011.7 hPa | 0 mm | - | 11 W/m² | - |
| 1778026081 | 21.11° C | 66% | 1011.9 hPa | 0 mm | - | 14 W/m² | - |
| 1778025779 | 21.67° C | 67% | 1012 hPa | 0 mm | - | 13 W/m² | - |
| 1778025475 | 21.67° C | 64% | 1012 hPa | 0 mm | - | 12 W/m² | - |
| 1778025173 | 21.67° C | 61% | 1012 hPa | 0 mm | - | 23 W/m² | - |
| 1778024869 | 21.67° C | 60% | 1012.1 hPa | 0 mm | - | 29 W/m² | - |
| 1778024567 | 21.67° C | 63% | 1012.1 hPa | 0 mm | - | 29 W/m² | - |
| 1778024263 | 21.67° C | 67% | 1012.1 hPa | 0 mm | - | 41 W/m² | - |
| 1778023962 | 21.67° C | 66% | 1012.3 hPa | 0 mm | - | 54 W/m² | - |
| 1778023658 | 21.67° C | 70% | 1012.5 hPa | 0 mm | - | 32 W/m² | - |
| 1778023356 | 21.67° C | 66% | 1012.4 hPa | 0 mm | - | 30 W/m² | - |
* Rain latest hour (hover to see other rain measurements)
** Current wind speed in m/s (hover to see current wind gust speed)